Location: Newark
(40.0667°N, 18.0500°E)
Time: 03:03:21
(UTC+00:00)

ISS - Visible Passes

Search period start: 28 January 2020 00:00
Search period end: 07 February 2020 00:00
Orbit: 416 x 423 km, 51.6° (Epoch: 28 January)

Date Brightness Start Highest point End Pass type
(mag) Time Alt. Az. Time Alt. Az. Time Alt. Az.
28 Jan -1.2 17:31:51 10° NNW 17:33:13 12° N 17:33:40 12° N visible
29 Jan -1.3 16:43:42 10° NW 16:45:22 13° N 16:47:01 10° NNE visible
30 Jan -1.3 17:33:57 10° NNW 17:35:24 12° N 17:35:24 12° N visible
31 Jan -1.3 16:46:16 10° NNW 16:47:34 12° N 16:48:52 10° NNE visible
31 Jan -0.6 18:22:45 10° NNW 18:22:46 10° NNW 18:22:46 10° NNW visible
01 Feb -1.6 17:35:20 10° NNW 17:37:13 16° N 17:37:13 16° N visible
02 Feb -1.5 16:47:53 10° NNW 16:49:44 14° NNE 16:51:34 10° NE visible
02 Feb -1.0 18:24:01 10° NW 18:24:40 15° NW 18:24:40 15° NW visible
03 Feb -2.5 17:36:32 10° NW 17:39:14 27° NNE 17:39:14 27° NNE visible
04 Feb -2.1 16:49:05 10° NNW 16:51:43 21° NNE 16:53:54 12° ENE visible
04 Feb -1.4 18:25:26 10° WNW 18:26:52 23° WNW 18:26:52 23° WNW visible
05 Feb -3.8 17:37:49 10° NW 17:41:11 66° NE 17:41:41 55° E visible
06 Feb -3.2 16:50:16 10° NW 16:53:29 40° NNE 16:56:39 10° ESE visible
06 Feb -1.4 18:27:23 10° WNW 18:29:40 22° WSW 18:29:40 22° WSW visible
